• In Kazakhstan
  • List of Countries
  • For 7 days
  • Water Temperature
  • Satellite Maps
  • Weather Map
  • News
  • Weather Widgets
  • user-avatar
    Login

    Hourly Weather Canillo

    Today, 17 July, Wednesday

    Time Temperature Precipitation Wind Pressure Humidity
    00:00 +12°C° 0 mm 1 mps 619 mmHg 80%
    01:00 +11°C° 0 mm 1 mps 618 mmHg 80%
    02:00 +11°C° 0 mm 1 mps 618 mmHg 80%
    03:00 +11°C° 0 mm 1 mps 618 mmHg 79%
    04:00 +12°C° 0 mm 1 mps 618 mmHg 78%
    05:00 +12°C° 0 mm 0 mps 619 mmHg 76%
    06:00 +13°C° 0 mm 0 mps 620 mmHg 74%
    07:00 +16°C° 0 mm 1 mps 620 mmHg 68%
    08:00 +18°C° 0 mm 1 mps 621 mmHg 63%
    09:00 +20°C° 0 mm 1 mps 621 mmHg 58%
    10:00 +19°C° 0.5 mm 1 mps 621 mmHg 63%
    11:00 +18°C° 0.5 mm 1 mps 621 mmHg 69%
    12:00 +18°C° 0.5 mm 1 mps 620 mmHg 74%
    13:00 +18°C° 0.9 mm 1 mps 620 mmHg 74%
    14:00 +18°C° 0.9 mm 1 mps 620 mmHg 74%
    15:00 +19°C° 0.9 mm 1 mps 620 mmHg 73%
    16:00 +16°C° 1.1 mm 1 mps 619 mmHg 79%
    17:00 +15°C° 1.1 mm 1 mps 619 mmHg 85%
    18:00 +14°C° 1.1 mm 1 mps 618 mmHg 91%
    19:00 +13°C° 0.1 mm 1 mps 619 mmHg 92%
    20:00 +13°C° 0.1 mm 1 mps 619 mmHg 94%
    21:00 +12°C° 0.1 mm 2 mps 619 mmHg 95%
    22:00 +12°C° 0 mm 1 mps 619 mmHg 96%
    23:00 +12°C° 0 mm 1 mps 619 mmHg 96%

    Tomorrow, 18 July, Thursday

    Time Temperature Precipitation Wind Pressure Humidity
    00:00 +11°C° 0 mm 1 mps 619 mmHg 96%
    01:00 +11°C° 0 mm 1 mps 618 mmHg 95%
    02:00 +11°C° 0 mm 1 mps 618 mmHg 95%
    03:00 +11°C° 0 mm 1 mps 618 mmHg 95%
    04:00 +11°C° 0 mm 1 mps 618 mmHg 95%
    05:00 +11°C° 0 mm 1 mps 619 mmHg 94%
    06:00 +12°C° 0 mm 1 mps 619 mmHg 93%
    07:00 +13°C° 0 mm 1 mps 620 mmHg 87%
    08:00 +15°C° 0 mm 1 mps 620 mmHg 80%
    09:00 +18°C° 0 mm 1 mps 621 mmHg 73%
    10:00 +18°C° 0 mm 1 mps 621 mmHg 71%
    11:00 +18°C° 0 mm 2 mps 621 mmHg 69%
    12:00 +18°C° 0 mm 2 mps 621 mmHg 67%
    13:00 +18°C° 0.3 mm 2 mps 621 mmHg 69%
    14:00 +18°C° 0.3 mm 2 mps 621 mmHg 71%
    15:00 +18°C° 0.3 mm 1 mps 620 mmHg 73%
    16:00 +18°C° 0.2 mm 1 mps 620 mmHg 76%
    17:00 +18°C° 0.2 mm 1 mps 620 mmHg 78%
    18:00 +16°C° 0.2 mm 1 mps 620 mmHg 81%
    19:00 +15°C° 0.1 mm 1 mps 620 mmHg 85%
    20:00 +14°C° 0.1 mm 1 mps 620 mmHg 90%
    21:00 +13°C° 0.1 mm 1 mps 620 mmHg 94%
    22:00 +12°C° 0 mm 1 mps 620 mmHg 94%
    23:00 +12°C° 0 mm 1 mps 620 mmHg 94%

    Day after tomorrow, 19 July, Friday

    Time Temperature Precipitation Wind Pressure Humidity
    00:00 +10°C° 0 mm 0 mps 619 mmHg 95%
    01:00 +10°C° 0 mm 0 mps 619 mmHg 95%
    02:00 +10°C° 0 mm 0 mps 619 mmHg 95%
    03:00 +10°C° 0 mm 1 mps 619 mmHg 95%
    04:00 +10°C° 0 mm 0 mps 620 mmHg 90%
    05:00 +11°C° 0 mm 0 mps 620 mmHg 85%
    06:00 +12°C° 0 mm 0 mps 620 mmHg 81%
    07:00 +15°C° 0 mm 1 mps 621 mmHg 70%
    08:00 +18°C° 0 mm 1 mps 622 mmHg 58%
    09:00 +20°C° 0 mm 1 mps 623 mmHg 47%
    10:00 +21°C° 0 mm 2 mps 623 mmHg 45%
    11:00 +23°C° 0 mm 2 mps 624 mmHg 42%
    12:00 +24°C° 0 mm 2 mps 624 mmHg 40%
    13:00 +24°C° 0 mm 2 mps 624 mmHg 40%
    14:00 +24°C° 0 mm 2 mps 623 mmHg 41%
    15:00 +24°C° 0 mm 2 mps 623 mmHg 41%
    16:00 +23°C° 0 mm 2 mps 622 mmHg 48%
    17:00 +21°C° 0 mm 2 mps 622 mmHg 54%
    18:00 +21°C° 0 mm 1 mps 621 mmHg 60%
    19:00 +19°C° 0 mm 1 mps 621 mmHg 64%
    20:00 +16°C° 0 mm 1 mps 620 mmHg 69%
    21:00 +14°C° 0 mm 1 mps 619 mmHg 73%
    22:00 +14°C° 0 mm 1 mps 619 mmHg 69%
    23:00 +14°C° 0 mm 1 mps 619 mmHg 64%

    20 July, Saturday

    Time Temperature Precipitation Wind Pressure Humidity
    00:00 +13°C° 0 mm 1 mps 619 mmHg 60%
    01:00 +13°C° 0 mm 1 mps 619 mmHg 60%
    02:00 +13°C° 0 mm 1 mps 619 mmHg 61%
    03:00 +13°C° 0 mm 2 mps 619 mmHg 61%
    04:00 +14°C° 0.1 mm 1 mps 619 mmHg 65%
    05:00 +15°C° 0.1 mm 1 mps 620 mmHg 69%
    06:00 +15°C° 0.1 mm 1 mps 620 mmHg 74%
    07:00 +19°C° 0 mm 1 mps 621 mmHg 64%
    08:00 +22°C° 0 mm 1 mps 623 mmHg 55%
    09:00 +24°C° 0 mm 1 mps 624 mmHg 45%
    10:00 +25°C° 0 mm 2 mps 624 mmHg 43%
    11:00 +26°C° 0 mm 2 mps 625 mmHg 40%
    12:00 +27°C° 0 mm 2 mps 625 mmHg 37%
    13:00 +26°C° 0.1 mm 3 mps 625 mmHg 39%
    14:00 +26°C° 0.1 mm 3 mps 624 mmHg 40%
    15:00 +26°C° 0.1 mm 3 mps 624 mmHg 42%
    16:00 +25°C° 0.2 mm 2 mps 624 mmHg 50%
    17:00 +24°C° 0.2 mm 2 mps 624 mmHg 59%
    18:00 +22°C° 0.2 mm 1 mps 623 mmHg 67%
    19:00 +20°C° 0.1 mm 1 mps 623 mmHg 72%
    20:00 +18°C° 0.1 mm 1 mps 623 mmHg 77%
    21:00 +15°C° 0.1 mm 1 mps 622 mmHg 82%
    22:00 +15°C° 0 mm 1 mps 622 mmHg 81%
    23:00 +15°C° 0 mm 1 mps 622 mmHg 79%

    21 July, Sunday

    Time Temperature Precipitation Wind Pressure Humidity
    00:00 +15°C° 0 mm 1 mps 622 mmHg 78%
    01:00 +15°C° 0 mm 1 mps 622 mmHg 75%
    02:00 +15°C° 0 mm 1 mps 622 mmHg 73%
    03:00 +15°C° 0 mm 1 mps 622 mmHg 71%
    04:00 +16°C° 0 mm 1 mps 623 mmHg 68%
    05:00 +16°C° 0 mm 1 mps 623 mmHg 66%
    06:00 +18°C° 0 mm 1 mps 624 mmHg 63%
    07:00 +19°C° 0 mm 2 mps 625 mmHg 55%
    08:00 +23°C° 0 mm 2 mps 626 mmHg 47%
    09:00 +25°C° 0 mm 2 mps 626 mmHg 40%
    10:00 +26°C° 0 mm 2 mps 627 mmHg 37%
    11:00 +27°C° 0 mm 2 mps 627 mmHg 35%
    12:00 +29°C° 0 mm 2 mps 627 mmHg 33%
    13:00 +28°C° 0 mm 2 mps 627 mmHg 33%
    14:00 +28°C° 0 mm 2 mps 627 mmHg 34%
    15:00 +28°C° 0 mm 2 mps 626 mmHg 35%
    16:00 +27°C° 0 mm 2 mps 626 mmHg 43%
    17:00 +25°C° 0 mm 2 mps 625 mmHg 50%
    18:00 +24°C° 0 mm 1 mps 625 mmHg 58%
    19:00 +22°C° 0 mm 1 mps 624 mmHg 60%
    20:00 +20°C° 0 mm 1 mps 624 mmHg 63%
    21:00 +18°C° 0 mm 1 mps 623 mmHg 66%
    22:00 +18°C° 0 mm 1 mps 623 mmHg 65%
    23:00 +18°C° 0 mm 1 mps 623 mmHg 64%

    22 July, Monday

    Time Temperature Precipitation Wind Pressure Humidity
    00:00 +16°C° 0 mm 1 mps 623 mmHg 64%
    01:00 +16°C° 0 mm 1 mps 623 mmHg 63%
    02:00 +18°C° 0 mm 1 mps 623 mmHg 62%
    03:00 +18°C° 0 mm 1 mps 622 mmHg 60%
    04:00 +18°C° 0 mm 1 mps 623 mmHg 59%
    05:00 +19°C° 0 mm 1 mps 623 mmHg 58%
    06:00 +20°C° 0 mm 1 mps 623 mmHg 57%
    07:00 +22°C° 0 mm 1 mps 624 mmHg 51%
    08:00 +24°C° 0 mm 1 mps 625 mmHg 46%
    09:00 +27°C° 0 mm 1 mps 626 mmHg 40%
    10:00 +27°C° 0 mm 2 mps 626 mmHg 39%
    11:00 +28°C° 0 mm 2 mps 626 mmHg 38%
    12:00 +29°C° 0 mm 2 mps 626 mmHg 37%
    13:00 +27°C° 1.5 mm 2 mps 626 mmHg 45%
    14:00 +25°C° 1.5 mm 2 mps 625 mmHg 52%
    15:00 +24°C° 1.5 mm 3 mps 624 mmHg 60%
    16:00 +21°C° 1.5 mm 2 mps 623 mmHg 67%
    17:00 +20°C° 1.5 mm 2 mps 623 mmHg 73%
    18:00 +18°C° 1.5 mm 2 mps 622 mmHg 79%
    19:00 +18°C° 0 mm 2 mps 622 mmHg 76%
    20:00 +19°C° 0 mm 1 mps 623 mmHg 72%
    21:00 +18°C° 0 mm 1 mps 623 mmHg 69%
    22:00 +18°C° 0 mm 1 mps 623 mmHg 68%
    23:00 +16°C° 0 mm 1 mps 622 mmHg 67%
    Show more